Weather Roundup
Issued by NWS

Home | Current Version | Previous Version | Graphics & Text | Print | Product List | Glossary Off
Versions: 1 2 3 4 5 6 7 8 9 10 11 12 13 14 15 16 17 18 19 20 21 22 23 24 25 26 27 28 29 30 31 32 33 34 35 36 37 38 39 40 41 42 43 44 45 46 47 48 49 50

000
NZUS93 KARX 182310
HRRWXR

CURRENT HOURLY OBSERVATIONS ACROSS
MUCH OF THE UPPER MISSISSIPPI VALLEY
NATIONAL WEATHER SERVICE LA CROSSE WI
600 PM CDT FRI AUG 18 2017


...SOUTHEAST MINNESOTA...


CITY           SKY/WX    TMP DP  RH WIND       PRES   REMARKS
ROCHESTER      SUNNY     70  60  70 S3        29.91F
ROCHESTER/MAYO FAIR      71  58  63 W5        29.91F
WINONA         CLOUDY    70  61  73 NW5       29.90S
AUSTIN         SUNNY     72  57  60 CALM      29.91S
ALBERT LEA     SUNNY     73  61  64 S3        29.90F
DODGE CENTER   SUNNY     72  59  64 SW3       29.91S
PRESTON        SUNNY     71  54  54 NW3       29.92S
OWATONNA       SUNNY     73  59  60 CALM      29.90S
FARIBAULT      SUNNY     73  59  60 CALM      29.91R
$$

...ELSEWHERE IN MINNESOTA...


CITY           SKY/WX    TMP DP  RH WIND       PRES   REMARKS
MINNEAPOLIS    CLOUDY    73  60  63 W7        29.89R
INTNL FALLS    CLOUDY    75  58  55 W6        29.80R
DULUTH         CLOUDY    70  62  76 SW7       29.85S
RED WING       MOSUNNY   73  61  64 W6        29.88S
REDWOOD FALLS  LGT RAIN  70  63  78 NE7       29.87R
MANKATO        SUNNY     72  59  63 S5        29.91R
WORTHINGTON    MOSUNNY   76  63  64 S9        29.89F
FAIRMONT       SUNNY     75  62  64 SE5       29.91S
$$

...SOUTHWEST WISCONSIN...


CITY           SKY/WX    TMP DP  RH WIND       PRES   REMARKS
LA CROSSE      CLOUDY    73  64  73 N3        29.88F
PRAIRIE DU CHI CLOUDY    71  59  64 NW5       29.90S
BOSCOBEL       CLOUDY    72  62  71 W3        29.90S
LONE ROCK      CLOUDY    71  62  73 W7        29.89R
PLATTEVILLE    PTSUNNY   71  63  74 NW7       29.91R
FORT MC COY    CLOUDY    67  62  85 W7        29.90S
CAMP DOUGLAS   CLOUDY    68  63  83 W8        29.88R
MAUSTON-NEW LI CLOUDY    69  62  78 W7        29.88R
VIROQUA        CLOUDY    66  64  92 NW3       29.92S
WIS DELLS      LGT RAIN  70  58  65 W3        29.89S
$$

...ELSEWHERE IN WISCONSIN...


CITY           SKY/WX    TMP DP  RH WIND       PRES   REMARKS
MILWAUKEE      MOSUNNY   79  59  50 W12       29.84S
MADISON        CLOUDY    72  59  63 NW7       29.87S
GREEN BAY      CLOUDY    70  62  76 W10       29.83R
EAU CLAIRE     MOSUNNY   70  63  78 W7        29.87S
BLACK RVR FLS  LGT RAIN  67  62  83 W5        29.89S
MEDFORD        CLOUDY    66  59  78 W7        29.88R
WAUSAU         CLOUDY    67  58  72 NW10      29.84S
WIS RAPIDS     CLOUDY    69  61  75 W7        29.89R
MARSHFIELD     CLOUDY    67  59  75 NW8       29.87R
RICE LAKE      CLOUDY    68  63  84 CALM      29.89S
$$

...NORTHEAST IOWA...


CITY           SKY/WX    TMP DP  RH WIND       PRES   REMARKS
WATERLOO       SUNNY     76  59  55 N8        29.89S
DUBUQUE        CLOUDY    73  61  65 NW7       29.91R
DECORAH        CLOUDY    68  63  83 NW5       29.91F
MASON CITY     SUNNY     71  60  68 E6        29.93S
CHARLES CITY   SUNNY     72  59  64 NE6       29.93S
OELWEIN        MOSUNNY   72  61  68 N5        29.92R
$$

...ELSEWHERE IN IOWA...


CITY           SKY/WX    TMP DP  RH WIND       PRES   REMARKS
DES MOINES     MOSUNNY   87  61  41 NW7       29.86S
IOWA CITY      SUNNY     82  66  58 N9        29.89S
FORT DODGE     SUNNY     79  61  53 SE3       29.91S
MARSHALLTOWN   SUNNY     79  64  60 NE5       29.89S
CEDAR RAPIDS   SUNNY     79  62  56 NW5       29.88S
$$

...NORTHERN ILLINOIS...


CITY           SKY/WX    TMP DP  RH WIND       PRES   REMARKS
CHICAGO-OHARE  MOSUNNY   80  59  48 W14       29.84S
CHICAGO-MIDWAY MOSUNNY   82  59  45 W14       29.84S
MOLINE         MOSUNNY   83  63  50 NW7       29.86F
ROCKFORD       PTSUNNY   78  60  53 W10       29.88R
PEORIA         MOSUNNY   82  65  56 SW7       29.87F
$$

NOTE: "FAIR" INDICATES FEW OR NO CLOUDS BELOW 12,000 FEET WITH NO
SIGNIFICANT WEATHER AND/OR OBSTRUCTIONS TO VISIBILITY. WIND
SPEEDS ARE IN MILES-PER-HOUR.




USA.gov is the U.S. government's official web portal to all federal, state and local government web resources and services.